This is the latest recevied weather packets stored in our database for station/object N9NDF. If no packets are shown the sender has not sent any weather packets the latest 1 day(s).
| Time | Temp. | Humidity | Pressure | Rain* | Wind** | Luminosity | Snow |
|---|---|---|---|---|---|---|---|
| 1778083998 | 13.33° C | 44% | 993.7 hPa | 0 mm | - | 911 W/m² | - |
| 1778083891 | 13.33° C | 45% | 993.7 hPa | 0 mm | - | 888 W/m² | - |
| 1778083818 | 13.33° C | 45% | 993.7 hPa | 0 mm | - | 869 W/m² | - |
| 1778083743 | 13.33° C | 46% | 993.7 hPa | 0 mm | - | 859 W/m² | - |
| 1778083503 | 12.78° C | 48% | 993.6 hPa | 0 mm | - | 798 W/m² | - |
| 1778083444 | 12.78° C | 48% | 993.6 hPa | 0 mm | - | 808 W/m² | - |
| 1778083384 | 12.78° C | 48% | 993.6 hPa | 0 mm | - | 857 W/m² | - |
| 1778083084 | 12.78° C | 48% | 993.6 hPa | 0 mm | - | 868 W/m² | - |
| 1778082604 | 12.22° C | 48% | 993.5 hPa | 0 mm | - | 818 W/m² | - |
| 1778082424 | 12.78° C | 49% | 993.5 hPa | 0 mm | - | 754 W/m² | - |
| 1778082063 | 12.78° C | 52% | 993.4 hPa | 0 mm | - | 581 W/m² | - |
| 1778081883 | 12.22° C | 54% | 993.4 hPa | 0 mm | - | 604 W/m² | - |
| 1778081582 | 12.22° C | 55% | 993.4 hPa | 0 mm | - | 600 W/m² | - |
| 1778081522 | 12.22° C | 54% | 993.4 hPa | 0 mm | - | 785 W/m² | - |
| 1778081042 | 11.67° C | 55% | 993.3 hPa | 0 mm | - | 391 W/m² | - |
| 1778080789 | 11.67° C | 58% | 993.3 hPa | 0 mm | - | 392 W/m² | - |
| 1778080729 | 11.67° C | 58% | 993.3 hPa | 0 mm | - | 470 W/m² | - |
| 1778080594 | 11.11° C | 59% | 993.3 hPa | 0 mm | - | 470 W/m² | - |
| 1778080534 | 11.11° C | 59% | 993.2 hPa | 0 mm | - | 482 W/m² | - |
| 1778080475 | 11.11° C | 59% | 993.2 hPa | 0 mm | - | 487 W/m² | - |
| 1778080333 | 11.11° C | 58% | 993.2 hPa | 0 mm | - | 580 W/m² | - |
| 1778080222 | 11.11° C | 58% | 993.2 hPa | 0 mm | - | 608 W/m² | - |
| 1778080144 | 11.11° C | 59% | 993.2 hPa | 0 mm | - | 641 W/m² | - |
| 1778080084 | 11.11° C | 60% | 993.2 hPa | 0 mm | - | 685 W/m² | - |
| 1778080029 | 10.56° C | 59% | 993.2 hPa | 0 mm | - | 383 W/m² | - |
* Rain latest hour (hover to see other rain measurements)
** Current wind speed in m/s (hover to see current wind gust speed)